TimeEST,TemperatureF,Dew PointF,Humidity,Sea Level PressureIn,VisibilityMPH,Wind Direction,Wind SpeedMPH,Gust SpeedMPH,PrecipitationIn,Events,Conditions,WindDirDegrees,DateUTC
12:53 AM,10.9,-6.0,47,30.31,10.0,West,8.1,-,N/A,,Clear,260,2014-01-07 05:53:00
1:53 AM,10.9,-4.0,51,30.34,10.0,WSW,6.9,-,N/A,,Clear,240,2014-01-07 06:53:00
2:53 AM,10.0,-4.0,53,30.35,10.0,WSW,3.5,-,N/A,,Clear,250,2014-01-07 07:53:00
3:53 AM,9.0,-5.1,53,30.36,10.0,NE,3.5,-,N/A,,Clear,40,2014-01-07 08:53:00
4:53 AM,8.1,-5.1,55,30.39,10.0,NNE,3.5,-,N/A,,Clear,20,2014-01-07 09:53:00
5:53 AM,8.1,-6.0,53,30.38,10.0,NNE,3.5,-,N/A,,Clear,30,2014-01-07 10:53:00
6:53 AM,7.0,-5.1,58,30.42,10.0,NNE,3.5,-,N/A,,Clear,20,2014-01-07 11:53:00
7:53 AM,8.1,-6.0,53,30.45,10.0,Calm,Calm,-,N/A,,Clear,0,2014-01-07 12:53:00
8:53 AM,10.9,-5.1,49,30.49,10.0,North,3.5,-,N/A,,Clear,350,2014-01-07 13:53:00
9:53 AM,12.9,-5.1,45,30.51,10.0,ENE,3.5,-,N/A,,Clear,60,2014-01-07 14:53:00
10:53 AM,16.0,-5.1,39,30.50,10.0,Calm,Calm,-,N/A,,Clear,0,2014-01-07 15:53:00
11:53 AM,19.0,-5.1,34,30.48,10.0,Calm,Calm,-,N/A,,Clear,0,2014-01-07 16:53:00
12:53 PM,21.0,-5.1,32,30.44,10.0,Calm,Calm,-,N/A,,Clear,0,2014-01-07 17:53:00
1:53 PM,23.0,-4.0,31,30.42,10.0,SSE,5.8,-,N/A,,Clear,160,2014-01-07 18:53:00
2:53 PM,26.1,-2.9,28,30.43,10.0,Variable,4.6,-,N/A,,Clear,0,2014-01-07 19:53:00
3:53 PM,26.1,-2.0,30,30.43,10.0,Variable,3.5,-,N/A,,Clear,0,2014-01-07 20:53:00
4:53 PM,26.1,-0.9,31,30.45,10.0,SSW,4.6,-,N/A,,Clear,210,2014-01-07 21:53:00
5:53 PM,25.0,1.0,36,30.47,10.0,SW,6.9,-,N/A,,Clear,220,2014-01-07 22:53:00
6:53 PM,24.1,1.0,37,30.49,10.0,SSW,4.6,-,N/A,,Clear,200,2014-01-07 23:53:00
7:53 PM,23.0,1.0,39,30.49,10.0,SW,4.6,-,N/A,,Clear,230,2014-01-08 00:53:00
8:53 PM,21.9,1.9,42,30.52,10.0,Calm,Calm,-,N/A,,Clear,0,2014-01-08 01:53:00
9:53 PM,21.9,1.9,42,30.51,10.0,SSW,4.6,-,N/A,,Clear,200,2014-01-08 02:53:00
10:53 PM,21.0,1.9,44,30.50,10.0,SW,4.6,-,N/A,,Clear,220,2014-01-08 03:53:00
11:53 PM,19.9,3.0,48,30.50,10.0,WSW,4.6,-,N/A,,Clear,250,2014-01-08 04:53:00